Cape Cod — WBK3243 — position and weather

sailwx.info

Track history (hours):
 
Tides and Currents Weather Stations Pressure Air Temp Water Temp Dewpoint Dewpoint Depression Visibility Wind Speed Wind Dir Waves Ship Positions

Cape Cod

Owner: MORAN TOWING CORPORATION, New Canaan, CT. More information available from US FCC via Universal Licensing System and Coast Guard Vessel Documentation Center.

Last reported at 2014-Oct-29 20:29 UTC. Time now 2014-Oct-30 22:53 UTC.
Position N 39°48' W 075°26'.

Length 33 m; draft 4.8 m.

Type: Tug. MMSI: 366939770.

Date/timePositionNaut miles runAvg speedWind from/ knotsBaromVisibWave heightAir tempDewpointWater temp
2014-Oct-29 20:29N 39°48' W 075°26'1011.0
2014-Oct-29 19:33N 39°39' W 075°33'1010.3
2014-Oct-29 18:33N 39°29' W 075°34'8 1.9
2014-Oct-29 14:15N 39°22' W 075°28'913.4
2014-Oct-29 13:33N 39°30' W 075°33'1313.1
2014-Oct-29 12:32N 39°44' W 075°30'  
2014-Oct-26 12:33N 39°46' W 075°29'3 2.5
2014-Oct-26 11:14N 39°43' W 075°31'2 2.3
2014-Oct-26 10:33N 39°44' W 075°30'5 0.2
2014-Oct-25 09:19N 39°48' W 075°26'811.0
2014-Oct-25 08:33N 39°41' W 075°31'6 6.4
2014-Oct-25 07:33N 39°35' W 075°35'3 2.6
2014-Oct-25 06:33N 39°34' W 075°33'1110.4
2014-Oct-25 05:31N 39°44' W 075°30'1 0.0
2014-Oct-23 06:32N 39°43' W 075°31'0 0.1
2014-Oct-23 05:33N 39°43' W 075°31'1 1.0
2014-Oct-23 04:33N 39°42' W 075°31'4 3.5
2014-Oct-23 03:31N 39°45' W 075°29'  
2014-Oct-20 00:12N 39°46' W 075°29'812.5
2014-Oct-19 23:33N 39°38' W 075°34'5 5.0
2014-Oct-19 22:33N 39°34' W 075°33'3 2.7
2014-Oct-19 21:33N 39°35' W 075°35'1 1.4
2014-Oct-19 20:33N 39°35' W 075°34'  
Track history (hours):
 
Tides and Currents Weather Stations Pressure Air Temp Water Temp Dewpoint Dewpoint Depression Visibility Wind Speed Wind Dir Waves Ship Positions

Cape Cod

Owner: MORAN TOWING CORPORATION, New Canaan, CT. More information available from US FCC via Universal Licensing System and Coast Guard Vessel Documentation Center.

Last reported at 2014-Oct-29 20:29 UTC. Time now 2014-Oct-30 22:53 UTC.
Position N 39°48' W 075°26'.

Length 33 m; draft 4.8 m.

Type: Tug. MMSI: 366939770.

Date/timePositionNaut miles runAvg speedWind from/ knotsBaromVisibWave heightAir tempDewpointWater temp
2014-Oct-29 20:29N 39°48' W 075°26'1011.0
2014-Oct-29 19:33N 39°39' W 075°33'1010.3
2014-Oct-29 18:33N 39°29' W 075°34'8 1.9
2014-Oct-29 14:15N 39°22' W 075°28'913.4
2014-Oct-29 13:33N 39°30' W 075°33'1313.1
2014-Oct-29 12:32N 39°44' W 075°30'  
2014-Oct-26 12:33N 39°46' W 075°29'3 2.5
2014-Oct-26 11:14N 39°43' W 075°31'2 2.3
2014-Oct-26 10:33N 39°44' W 075°30'5 0.2
2014-Oct-25 09:19N 39°48' W 075°26'811.0
2014-Oct-25 08:33N 39°41' W 075°31'6 6.4
2014-Oct-25 07:33N 39°35' W 075°35'3 2.6
2014-Oct-25 06:33N 39°34' W 075°33'1110.4
2014-Oct-25 05:31N 39°44' W 075°30'1 0.0
2014-Oct-23 06:32N 39°43' W 075°31'0 0.1
2014-Oct-23 05:33N 39°43' W 075°31'1 1.0
2014-Oct-23 04:33N 39°42' W 075°31'4 3.5
2014-Oct-23 03:31N 39°45' W 075°29'  
2014-Oct-20 00:12N 39°46' W 075°29'812.5
2014-Oct-19 23:33N 39°38' W 075°34'5 5.0
2014-Oct-19 22:33N 39°34' W 075°33'3 2.7
2014-Oct-19 21:33N 39°35' W 075°35'1 1.4
2014-Oct-19 20:33N 39°35' W 075°34'  

Dump ship's entire track history